This is the latest recevied weather packets stored in our database for station/object WC4PEM-4. If no packets are shown the sender has not sent any weather packets the latest 10 day(s).
| Time | Temp. | Humidity | Pressure | Rain* | Wind** | Luminosity | Snow |
|---|---|---|---|---|---|---|---|
| 1788205281 | 23.89° C | 91% | 1017 hPa | 4.83 mm | - | - | - |
| 1788205090 | 24.44° C | 90% | 1017 hPa | 3.56 mm | - | - | - |
| 1788204981 | 24.44° C | 90% | 1017 hPa | 3.56 mm | - | - | - |
| 1788204681 | 24.44° C | 90% | 1017.2 hPa | 2.29 mm | - | - | - |
| 1788204381 | 25° C | 89% | 1017.2 hPa | 1.02 mm | - | - | - |
| 1788204168 | 25.56° C | 87% | 1017 hPa | 0.25 mm | - | - | - |
| 1788204081 | 25.56° C | 87% | 1017 hPa | 0.25 mm | - | - | - |
| 1788203929 | 26.11° C | 82% | 1016.8 hPa | 0 mm | - | - | - |
| 1788203781 | 26.11° C | 82% | 1016.8 hPa | 0 mm | - | - | - |
| 1788203481 | 26.67° C | 79% | 1016.7 hPa | 0 mm | - | - | - |
| 1788203181 | 27.22° C | 77% | 1016.8 hPa | 0 mm | - | - | - |
| 1788203054 | 28.33° C | 75% | 1016.8 hPa | 0 mm | - | - | - |
| 1788202881 | 28.33° C | 75% | 1016.8 hPa | 0 mm | - | - | - |
| 1788202694 | 28.33° C | 73% | 1016.9 hPa | 0 mm | - | - | - |
| 1788202581 | 28.33° C | 73% | 1016.9 hPa | 0 mm | - | - | - |
| 1788202281 | 28.89° C | 72% | 1016.7 hPa | 0 mm | - | - | - |
| 1788201981 | 29.44° C | 70% | 1016.5 hPa | 0 mm | - | - | - |
| 1788201855 | 31.11° C | 67% | 1016.4 hPa | 0 mm | - | - | - |
| 1788201681 | 31.11° C | 67% | 1016.4 hPa | 0 mm | - | - | - |
| 1788201381 | 32.78° C | 61% | 1016.1 hPa | 0 mm | - | - | - |
| 1788201214 | 33.33° C | 59% | 1016.2 hPa | 0 mm | - | - | - |
| 1788201081 | 33.33° C | 59% | 1016.2 hPa | 0 mm | - | - | - |
| 1788200781 | 33.89° C | 58% | 1016.2 hPa | 0 mm | - | - | - |
| 1788200481 | 33.89° C | 61% | 1016.1 hPa | 0 mm | - | - | - |
| 1788200296 | 33.89° C | 59% | 1015.8 hPa | 0 mm | - | - | - |
* Rain latest hour (hover to see other rain measurements)
** Current wind speed in m/s (hover to see current wind gust speed)